• In Hungary
  • List of Countries
  • For 7 days
  • Water Temperature
  • Satellite Maps
  • Weather Map
  • News
  • Weather Widgets
  • user-avatar
    Login

    Hourly Weather Santa Cruz

    Today, 18 February, Sunday

    Time Temperature Precipitation Wind Pressure Humidity
    00:00 +24°C° 0.2 mm 1 mps 722 mmHg 91%
    01:00 +23°C° 0.2 mm 1 mps 721 mmHg 92%
    02:00 +23°C° 0 mm 1 mps 721 mmHg 91%
    03:00 +23°C° 0 mm 1 mps 721 mmHg 91%
    04:00 +23°C° 0 mm 1 mps 721 mmHg 91%
    05:00 +23°C° 0 mm 1 mps 721 mmHg 91%
    06:00 +24°C° 0 mm 2 mps 721 mmHg 87%
    07:00 +25°C° 0 mm 3 mps 721 mmHg 83%
    08:00 +26°C° 0 mm 3 mps 721 mmHg 78%
    09:00 +28°C° 0 mm 4 mps 721 mmHg 70%
    10:00 +30°C° 0 mm 4 mps 720 mmHg 62%
    11:00 +33°C° 0 mm 5 mps 720 mmHg 54%
    12:00 +34°C° 0 mm 5 mps 719 mmHg 51%
    13:00 +35°C° 0 mm 5 mps 718 mmHg 49%
    14:00 +35°C° 0 mm 6 mps 717 mmHg 46%
    15:00 +35°C° 0 mm 5 mps 716 mmHg 49%
    16:00 +34°C° 0 mm 5 mps 716 mmHg 52%
    17:00 +34°C° 0 mm 5 mps 715 mmHg 54%
    18:00 +32°C° 0.1 mm 5 mps 716 mmHg 62%
    19:00 +29°C° 0.1 mm 4 mps 716 mmHg 70%
    20:00 +27°C° 0.1 mm 3 mps 717 mmHg 79%
    21:00 +27°C° 0.1 mm 3 mps 717 mmHg 80%
    22:00 +27°C° 0.1 mm 3 mps 718 mmHg 81%
    23:00 +27°C° 0.1 mm 4 mps 718 mmHg 82%

    Tomorrow, 19 February, Monday

    Time Temperature Precipitation Wind Pressure Humidity
    00:00 +26°C° 0.1 mm 3 mps 718 mmHg 85%
    01:00 +25°C° 0.1 mm 3 mps 717 mmHg 88%
    02:00 +25°C° 0.1 mm 2 mps 717 mmHg 91%
    03:00 +25°C° 0.1 mm 3 mps 717 mmHg 91%
    04:00 +25°C° 0.1 mm 3 mps 717 mmHg 91%
    05:00 +25°C° 0.1 mm 4 mps 716 mmHg 91%
    06:00 +26°C° 0 mm 4 mps 717 mmHg 88%
    07:00 +26°C° 0 mm 5 mps 717 mmHg 85%
    08:00 +27°C° 0 mm 5 mps 718 mmHg 82%
    09:00 +27°C° 0.1 mm 5 mps 718 mmHg 79%
    10:00 +28°C° 0.1 mm 5 mps 718 mmHg 77%
    11:00 +29°C° 0.1 mm 5 mps 717 mmHg 74%
    12:00 +30°C° 0.1 mm 5 mps 717 mmHg 67%
    13:00 +33°C° 0.1 mm 5 mps 716 mmHg 60%
    14:00 +35°C° 0.1 mm 6 mps 715 mmHg 53%
    15:00 +34°C° 0 mm 5 mps 715 mmHg 55%
    16:00 +34°C° 0 mm 5 mps 715 mmHg 56%
    17:00 +33°C° 0 mm 5 mps 714 mmHg 58%
    18:00 +32°C° 0 mm 5 mps 715 mmHg 64%
    19:00 +30°C° 0 mm 4 mps 716 mmHg 69%
    20:00 +28°C° 0 mm 4 mps 717 mmHg 74%
    21:00 +28°C° 0.1 mm 4 mps 717 mmHg 77%
    22:00 +27°C° 0.1 mm 4 mps 718 mmHg 79%
    23:00 +27°C° 0.1 mm 4 mps 718 mmHg 81%

    Day after tomorrow, 20 February, Tuesday

    Time Temperature Precipitation Wind Pressure Humidity
    00:00 +27°C° 0 mm 4 mps 718 mmHg 82%
    01:00 +27°C° 0 mm 4 mps 718 mmHg 82%
    02:00 +26°C° 0 mm 4 mps 718 mmHg 83%
    03:00 +26°C° 0.1 mm 4 mps 718 mmHg 84%
    04:00 +26°C° 0.1 mm 4 mps 718 mmHg 85%
    05:00 +26°C° 0.1 mm 3 mps 718 mmHg 86%
    06:00 +26°C° 0.1 mm 4 mps 718 mmHg 86%
    07:00 +26°C° 0.1 mm 4 mps 719 mmHg 85%
    08:00 +26°C° 0.1 mm 4 mps 720 mmHg 85%
    09:00 +27°C° 0.1 mm 4 mps 720 mmHg 81%
    10:00 +28°C° 0.1 mm 4 mps 720 mmHg 78%
    11:00 +29°C° 0.1 mm 4 mps 720 mmHg 75%
    12:00 +30°C° 0 mm 4 mps 719 mmHg 68%
    13:00 +33°C° 0 mm 4 mps 718 mmHg 62%
    14:00 +34°C° 0 mm 5 mps 717 mmHg 55%
    15:00 +34°C° 0 mm 4 mps 717 mmHg 56%
    16:00 +34°C° 0 mm 4 mps 717 mmHg 58%
    17:00 +33°C° 0 mm 4 mps 716 mmHg 59%
    18:00 +31°C° 0 mm 3 mps 717 mmHg 65%
    19:00 +29°C° 0 mm 3 mps 718 mmHg 70%
    20:00 +28°C° 0 mm 2 mps 719 mmHg 76%
    21:00 +27°C° 0.1 mm 2 mps 719 mmHg 78%
    22:00 +27°C° 0.1 mm 2 mps 720 mmHg 80%
    23:00 +26°C° 0.1 mm 2 mps 721 mmHg 82%

    21 February, Wednesday

    Time Temperature Precipitation Wind Pressure Humidity
    00:00 +26°C° 0.3 mm 2 mps 720 mmHg 85%
    01:00 +26°C° 0.3 mm 2 mps 720 mmHg 87%
    02:00 +25°C° 0.3 mm 2 mps 720 mmHg 90%
    03:00 +25°C° 0.2 mm 2 mps 720 mmHg 91%
    04:00 +25°C° 0.2 mm 2 mps 720 mmHg 92%
    05:00 +25°C° 0.2 mm 1 mps 721 mmHg 93%
    06:00 +25°C° 0.8 mm 1 mps 721 mmHg 91%
    07:00 +26°C° 0.8 mm 1 mps 722 mmHg 89%
    08:00 +26°C° 0.8 mm 1 mps 723 mmHg 87%
    09:00 +28°C° 0.7 mm 1 mps 723 mmHg 79%
    10:00 +30°C° 0.7 mm 2 mps 723 mmHg 70%
    11:00 +33°C° 0.7 mm 3 mps 723 mmHg 62%
    12:00 +33°C° 1 mm 3 mps 722 mmHg 62%
    13:00 +33°C° 1 mm 3 mps 721 mmHg 62%
    14:00 +34°C° 1 mm 3 mps 721 mmHg 62%
    15:00 +34°C° 0.5 mm 3 mps 721 mmHg 60%
    16:00 +34°C° 0.5 mm 2 mps 720 mmHg 58%
    17:00 +34°C° 0.5 mm 2 mps 720 mmHg 56%
    18:00 +31°C° 1.3 mm 2 mps 721 mmHg 63%
    19:00 +29°C° 1.3 mm 2 mps 721 mmHg 69%
    20:00 +27°C° 1.3 mm 1 mps 722 mmHg 76%
    21:00 +26°C° 2.1 mm 2 mps 722 mmHg 82%
    22:00 +25°C° 2.1 mm 2 mps 722 mmHg 88%
    23:00 +24°C° 2.1 mm 2 mps 723 mmHg 94%

    22 February, Thursday

    Time Temperature Precipitation Wind Pressure Humidity
    00:00 +24°C° 0.3 mm 2 mps 722 mmHg 92%
    01:00 +24°C° 0.3 mm 2 mps 722 mmHg 89%
    02:00 +24°C° 0.3 mm 2 mps 722 mmHg 87%
    03:00 +24°C° 0 mm 2 mps 722 mmHg 83%
    04:00 +24°C° 0 mm 2 mps 722 mmHg 79%
    05:00 +25°C° 0 mm 2 mps 722 mmHg 75%
    06:00 +25°C° 0.1 mm 2 mps 722 mmHg 74%
    07:00 +26°C° 0.1 mm 2 mps 723 mmHg 72%
    08:00 +27°C° 0.1 mm 2 mps 723 mmHg 71%
    09:00 +29°C° 0 mm 2 mps 723 mmHg 62%
    10:00 +31°C° 0 mm 3 mps 723 mmHg 54%
    11:00 +34°C° 0 mm 3 mps 723 mmHg 45%
    12:00 +35°C° 0 mm 3 mps 722 mmHg 44%
    13:00 +35°C° 0 mm 3 mps 721 mmHg 43%
    14:00 +36°C° 0 mm 3 mps 721 mmHg 42%
    15:00 +35°C° 0 mm 2 mps 720 mmHg 45%
    16:00 +34°C° 0 mm 2 mps 720 mmHg 48%
    17:00 +33°C° 0 mm 1 mps 719 mmHg 51%
    18:00 +31°C° 0 mm 1 mps 719 mmHg 55%
    19:00 +29°C° 0 mm 1 mps 720 mmHg 60%
    20:00 +26°C° 0 mm 0 mps 720 mmHg 64%
    21:00 +25°C° 0 mm 0 mps 720 mmHg 65%
    22:00 +25°C° 0 mm 0 mps 721 mmHg 66%
    23:00 +27°C° 0 mm 1 mps 721 mmHg 67%

    23 February, Friday

    Time Temperature Precipitation Wind Pressure Humidity
    00:00 +26°C° 0 mm 1 mps 721 mmHg 69%
    01:00 +26°C° 0 mm 1 mps 720 mmHg 70%
    02:00 +25°C° 0 mm 1 mps 720 mmHg 71%
    03:00 +25°C° 0 mm 1 mps 720 mmHg 72%
    04:00 +25°C° 0 mm 1 mps 720 mmHg 72%
    05:00 +24°C° 0 mm 1 mps 720 mmHg 73%
    06:00 +25°C° 0 mm 1 mps 721 mmHg 69%
    07:00 +27°C° 0 mm 2 mps 721 mmHg 66%
    08:00 +28°C° 0 mm 2 mps 722 mmHg 63%
    09:00 +30°C° 0 mm 2 mps 722 mmHg 55%
    10:00 +32°C° 0 mm 2 mps 722 mmHg 46%
    11:00 +35°C° 0 mm 3 mps 722 mmHg 38%
    12:00 +36°C° 0 mm 2 mps 721 mmHg 36%
    13:00 +36°C° 0 mm 2 mps 721 mmHg 33%
    14:00 +37°C° 0 mm 2 mps 720 mmHg 30%
    15:00 +37°C° 0 mm 2 mps 719 mmHg 32%
    16:00 +37°C° 0 mm 2 mps 719 mmHg 33%
    17:00 +36°C° 0 mm 2 mps 719 mmHg 35%
    18:00 +33°C° 0 mm 1 mps 719 mmHg 41%
    19:00 +31°C° 0 mm 1 mps 720 mmHg 47%
    20:00 +29°C° 0 mm 1 mps 720 mmHg 53%
    21:00 +28°C° 0 mm 1 mps 721 mmHg 54%
    22:00 +28°C° 0 mm 1 mps 721 mmHg 55%
    23:00 +26°C° 0 mm 0 mps 722 mmHg 56%
    Show more